Погода Ордынское

Погода Ордынское : погода сейчас, прогноз погоды и архив. Всё, что Вы хотите узнать о погоде Ордынское!

Хотите узнать прогноз погоды Ордынское? Тогда Вам сюда: Погода Ордынское

Поиск расширенной информации на нашем сайте:

Другие новости

Новости СМИ2

Главная страница сайта

Новости сайта

03.07.2017

Напоминаем, что на нашем специализированном сайте Метеоцентр.Азия вы можете получить высокодетализированные автоматические прогнозы погоды по пунктам России, СНГ и мира в авиационном формате (включающие направление и скорость ветра, видимость, явления погоды, количество и форму облачности, нижнюю и верхнюю границу облачности).

Рекомендуем: Деаэратор молока комплект оборудования по подготовке молока.

Погода Ордынское - сегодня

Время (UTC), дата Ветер
(°,м/с) 
Видим.   Явления Облачность Т
(°С)
Тd
(°С)
f(%) Тe
(°С)
Pmin
(гПа)
dP
(гПа)
Po
(мм)
O2
(г/м3)
Тmin Tmax R s Состояние
почвы
21 20.11.17 220 (ЮЗ) 4000 м  слаб. ливневой снег  10/10 600 м кучево-дожд. 
[Cb calv]
-2 -3.3 91 -3  1033.7  -0.3  762  310           
00 21.11.17 230 (ЮЗ) 4000 м  слаб. ливневой снег  10/8 600 м кучево-дожд., средняя 
[Cb calv|Ac As]
-1.9 -3.4 89 -5  1033.1  -0.6  762  310  -2.2    0.7  11  равномерный
мокрый или
старый снег
100% 
03 21.11.17 230 (ЮЗ) 20000 м  {ливн. осадки}  10/10 600 м кучево-дожд. 
[Cb calv]
-1.8 -3.5 88 -5  1033.6  0.5  762  310           
06 21.11.17 240 (ЮЗ) 20000 м  {ливн. осадки}  10/10 600 м кучево-дожд. 
[Cb calv]
-1.6 -4.2 82 -4  1034.3  0.7  763  310           
09 21.11.17 220 (ЮЗ) 20000 м    10/10 300 м 
[St]
-1.6 -4.3 82 -4  1034.3  763  310           
12 21.11.17 230 (ЮЗ) 20000 м    8/8 600 м 
[Sc]
-1.8 -4.4 82 -5  1034.5  0.2  763  310    -1.6  0.0     
15 21.11.17 230 (ЮЗ) 20000 м    10/10 600 м 
[Sc]
-2.5 -4.9 84 -5  1034.1  -0.4  763  311           
18 21.11.17 220 (ЮЗ) 5-11{11}  4000 м  слаб. ливневой снег  10/10 600 м кучево-дожд. 
[Cb calv]
-2.9 -5 85 -6  1033.3  -0.9  762  311           
21 21.11.17 230 (ЮЗ) 5{11}  20000 м  позёмок{ливн. осадки}  10/10 600 м кучево-дожд. 
[Cb calv]
-2.8 -5.5 82 -6  1032.9  -0.3  762  311           
00 22.11.17 230 (ЮЗ) 4{10}  20000 м  позёмок  10/10 600 м кучево-дожд. 
[Cb calv]
-3.3 -6 82 -6  1033  762  311  -3.3    0.0  10  равномерный
мокрый или
старый снег
100% 
03 22.11.17 230 (ЮЗ) 4{10}  10 км  слаб. ливневой дождь [диам. гололёда 0 мм]  10/8 600 м кучево-дожд., средняя 
[Cb calv|Ac As]
-3.4 -6.2 81 -6  1033.8  0.8  762  312  -3.4         
06 22.11.17 230 (ЮЗ) 20000 м  {ливн. осадки} [диам. гололёда 3 мм]  10/5 600 м кучево-дожд., средняя, верхняя 
[Cb calv|Ac As|Cs]
-2.5 -6.1 76 -5  1034.8  1.1  763  311           
09 22.11.17 220 (ЮЗ) 20000 м    10/6 600 м кучево-дожд., средняя 
[Cb calv|Ac As]
-1.8 -6.2 72 -4  1035.1  0.3  764  310           
12 22.11.17 230 (ЮЗ) 20000 м    8/5 600 м кучево-дожд., средняя 
[Cb calv|Ac As]
-2.4 -6.6 73 -3  1035.1  764  311    -1.2  0.0     
15 22.11.17 230 (ЮЗ) 20000 м    ясно 
-4.3 -7.8 77 -6  1034.9  -0.4  763  313           
18 22.11.17 240 (ЮЗ) 20000 м    4/0 средняя 
[Ac As]
-5.4 -8.3 80 -7  1034.6  -0.3  763  315           
21 22.11.17 250 (З) 20000 м    8/8 1000 м 
[Sc]
-6.4 -8.7 84 -6  1033.9  -0.7  762  316           
00 23.11.17 290 (З) 20000 м    ясно 
-9.4 -11 88 -9  1033.5  -0.7  762  319  -9.4      10  равномерный
мокрый или
старый снег
100% 
03 23.11.17 тихо ()   20000 м    6/0 верхняя 
[Ci fib]
-11.1 -12.4 90 -11  1033.8  0.2  762  321  -11.6         
06 23.11.17 270 (З) 20000 м    ясно 
-5.7 -8.9 78 -7  1033.1  -0.3  762  314           
09 23.11.17 250 (З) 20000 м    ясно 
-2.4 -7.8 66 -3  1032.3  -0.6  761  310           
12 23.11.17 тихо ()   20000 м    ясно 
-8.3 -10.4 85 -8  1032.4  -0.3  761  317    -2.4       
15 23.11.17 330 (СЗ) 20000 м    ясно 
-11.9 -13.5 88 -12  1032.6  -0.1  761  322           
18 23.11.17 320 (СЗ) 20000 м    ясно 
-12.6 -14.1 89 -13  1032.4  -0.2  761  323           
21 23.11.17 310 (СЗ) 20000 м    ясно 
-13.4 -14.9 88 -13  1032.3  -0.1  761  324           
Время (UTC), дата Ветер
(°,м/с) 
Видим.   Явления Облачность Т
(°С)
Тd
(°С)
f(%) Тe
(°С)
Pmin
(гПа)
dP
(гПа)
Po
(мм)
O2
(г/м3)
Тmin Tmax R s Состояние
почвы

Для получения пояснительной информации подведите курсор к названию столбца.

ПОГОДА Ордынское - архив

Всё, что Вы хотите узнать о погоде Ордынское - удобно и подробно!

Выберите нужную дату (начиная с 1 января 2015* года) и нажмите кнопку "Найти".
Будут отображены архивные сводки погоды по пункту Ордынское, начиная с указанной даты.


Отображать данные в формате CSV (для использования в таблицах Excel)


Внимание! Наш архив погоды предназначен исключительно для личного некоммерческого использования в познавательных целях. Если Вам необходимы официальные справки о состоянии погоды (для производственных, юридических, коммерческих и т.п. целей), обращайтесь в органы Росгидромета.

*Примечание: данная дата относится к архиву по метеостанциям СССР (Россия, СНГ, Балтия).
Архив по метеостанциям Зарубежной Европы и Азии (кроме Китая) хранится 10 дней, по другим регионам земного шара (Китай, Африка, Америка, Австралия, Океания) - 1 день.

Ордынское - район местоположения метеостанции


Название, широта, долгота, высота метеостанции:
Ордынское 54.4°ш. 81.9°д. 134 м над ур. моря [Российская Федерация]

Дополнительная информация

В oтличие oт бoльшинства пoгoдных сайтoв мы публикуем пoдрoбную метеoинфoрмацию в детальнoм прoфессиoнальнoм фoрмате.

Характеристики температуры и влажнoсти вoздуха измеряются на высoте 2 м в тени вдали oт зданий и деревьев.
Скoрoсть ветра измеряется на высoте 10 м (на урoвне рoста челoвека скoрoсть ветра ниже в 1.5-2 раза). Если метеoстанция нахoдится в гoрoде или в лесу, тo скoрoсть ветра занижена на 2-4 м/с пo сравнению с oткрытым местoм. Скoрoсть ветра над акватoриями крупных рек и oзёр, а также на вершинах хoлмoв на 2-5 м/с выше, чем в oбычных услoвиях.
Атмoсфернoе давление в разных тoчках местнoсти мoжет значительнo oтличаться oт давления на метеoстанции, в зависимoсти oт услoвий рельефа (при пoдъёме на 10 м давление пoнижается примернo на 1 мм рт.ст.).